Location: Astronight Observatory
(42.6003°N, 71.2981°W)
Time: 02:53:32
(UTC-04:00)

Daily predictions for brighter satellites

Satellite Brightness Start Highest point End
(mag) Time Altitude Azimuth Time Altitude Azimuth Time Altitude Azimuth
BREEZE-M DEB (TANK) 3.9 00:01:18 10° NW 00:04:05 39° NNE 00:11:35 10° E
ALOS 2 3.0 00:07:31 60° NNE 00:07:31 60° NNE 00:11:15 10° N
H-2A R/B 3.3 00:06:16 10° NNE 00:09:52 50° NE 00:09:52 50° NE
Meteor 2-21 Rocket 4.3 00:11:09 69° SSW 00:11:57 87° W 00:18:12 10° N
ISS -0.2 00:15:58 11° NE 00:15:58 11° NE 00:16:07 10° NE
ATLAS 2AS CENTAUR R/B 4.5 00:06:00 10° NNW 00:13:11 32° NE 00:20:05 10° E
Meteor 2-16 Rocket 4.3 00:16:16 73° SSE 00:16:53 84° E 00:23:01 10° N
Cosmos 1315 Rocket 4.2 00:18:45 35° NNE 00:18:45 35° NNE 00:21:11 10° NNE
Terra 4.3 00:16:52 11° W 00:17:39 11° W 00:18:57 10° WNW
Cosmos 1455 Rocket 4.0 00:23:53 41° NE 00:23:53 41° NE 00:27:02 10° NNE
Lacrosse 5 rocket 3.8 00:26:39 12° ENE 00:26:39 12° ENE 00:27:00 10° NE
NOSS 3-1 (C) 4.0 00:17:15 10° NW 00:24:50 82° NE 00:27:26 48° SE
Lacrosse 5 3.0 00:27:11 32° ENE 00:27:11 32° ENE 00:30:11 10° NE
CZ-2C R/B 3.4 00:20:58 10° NNE 00:25:21 39° E 00:25:21 39° E
Cosmos 1302 Rocket 4.2 00:31:59 62° W 00:32:13 62° WNW 00:37:29 10° NNE
Cosmos 1025 Rocket 4.1 00:28:43 10° NNW 00:32:03 40° WNW 00:32:03 40° WNW
Meteor 1-11 Rocket 4.4 00:33:06 44° WSW 00:34:06 49° WNW 00:39:45 10° N
CZ-2C R/B 3.8 00:38:43 41° E 00:39:02 41° ENE 00:43:41 10° N
Cosmos 1833 Rocket 4.3 00:35:01 10° NW 00:39:00 22° W 00:39:00 22° W
Gbstr 26 Del rocket 4.2 00:37:23 10° NW 00:40:15 37° NW 00:40:15 37° NW
Meteor 2-4 Rocket 3.9 00:37:35 10° NNW 00:42:48 57° W 00:42:48 57° W
Cosmos 1447 Rocket 4.3 00:37:36 10° N 00:43:47 79° E 00:44:23 72° SE
UNK 4.4 00:26:08 10° SW 00:44:59 75° SSE 00:49:31 10° ENE
GP-B 3.9 00:46:16 10° N 00:49:47 48° NE 00:49:47 48° NE
Cosmos 2082 Rocket 4.3 00:48:53 10° WNW 00:51:28 14° W 00:51:28 14° W
Cosmos 1544 Rocket 4.5 00:52:45 44° NW 00:52:45 44° NW 00:56:09 10° N
Cosmos 1346 Rocket 4.1 00:48:06 10° N 00:50:41 37° NNE 00:50:41 37° NNE
Cosmos 1943 Rocket 3.1 00:52:36 35° E 00:52:36 35° E 00:57:05 10° NE
Cosmos 2100 Rocket 4.2 00:52:29 55° ESE 00:53:09 58° E 00:59:24 10° NNE
Cosmos 2061 Rocket 4.3 00:55:25 53° ESE 00:56:11 56° E 01:02:27 10° NNE
Cosmos 2263 4.2 00:58:16 70° E 00:58:16 70° E 01:03:40 10° NNE
Cosmos 1975 4.0 01:04:56 40° NNE 01:04:56 40° NNE 01:07:39 10° NNE
MOS 1-B Rocket 4.2 01:08:11 54° WSW 01:08:29 55° W 01:14:51 10° NNW
CZ-4B R/B 4.4 01:12:27 10° NW 01:12:27 10° NW 01:12:31 10° NW
Cosmos 1802 Rocket 4.0 01:13:51 62° SE 01:14:31 67° E 01:20:43 10° NNE
Cosmos 2285 Rocket 4.5 01:13:36 44° WSW 01:14:59 52° WNW 01:21:14 10° NNE
Cosmos 2016 Rocket 4.1 01:16:52 55° ESE 01:17:34 59° E 01:23:34 10° NNE
Cosmos 1833 4.4 01:12:47 10° NNW 01:18:23 65° ENE 01:19:09 58° ESE
Cosmos 1459 Rocket 3.8 01:20:30 74° S 01:21:07 87° E 01:27:15 10° N
Cosmos 1818 3.5 01:31:29 74° ESE 01:31:29 74° ESE 01:36:50 10° NE
SeaSat 1 2.4 01:33:33 74° E 01:33:42 75° ENE 01:38:39 10° NNW
Cosmos 1825 Rocket 4.0 01:31:59 10° N 01:35:58 57° NE 01:35:58 57° NE
Cosmos 2173 Rocket 3.9 01:36:12 64° SW 01:37:02 74° W 01:43:24 10° N
SL-24 DEB 4.5 01:33:41 10° N 01:38:03 66° NW 01:38:03 66° NW
Cosmos 1743 3.8 01:43:48 42° NE 01:43:48 42° NE 01:46:32 10° NNE
NOSS 3-1 (A) 4.3 01:35:57 10° NW 01:43:14 48° WSW 01:44:01 46° SW
Cosmos 968 Rocket 3.4 01:38:23 10° NNW 01:43:39 79° ENE 01:43:52 77° ESE
Cosmos 2369 Rocket 3.2 01:43:16 33° W 01:44:34 37° WNW 01:49:47 10° N
Cosmos 1758 Rocket 4.2 01:43:26 10° N 01:47:50 50° ENE 01:47:50 50° ENE
Cosmos 2219 3.6 01:42:34 10° NNW 01:48:09 58° ENE 01:49:54 40° ESE
Cosmos 1066 Rocket 4.0 01:44:32 10° NNW 01:49:53 72° W 01:49:55 72° W
ISS -0.3 01:48:33 12° NW 01:50:15 17° N 01:52:28 10° NE
Cosmos 1725 Rocket 4.0 01:49:43 58° SSE 01:50:51 72° E 01:57:00 10° NNE
Tsikada Rocket 4.0 01:48:09 10° N 01:54:27 76° E 01:56:02 52° SSE
Cosmos 2227 Rocket 4.4 01:52:04 10° N 01:56:24 22° NE 02:00:43 10° E
Lacrosse 5 rocket 3.0 02:02:21 23° NW 02:02:47 24° NNW 02:05:49 10° NNE
Cosmos 1340 3.7 02:00:37 10° N 02:03:55 42° ENE 02:03:55 42° ENE
ATLAS 2AS CENTAUR R/B 2.9 01:56:57 10° NW 02:05:06 81° WSW 02:08:36 37° SSE
CZ-2C R/B 4.0 02:01:41 10° N 02:05:58 27° WNW 02:06:52 25° W
Lacrosse 5 3.1 02:06:22 26° WNW 02:08:22 36° NNW 02:13:06 10° NE
Cosmos 1777 Rocket 3.9 02:07:32 10° NNW 02:12:47 85° ENE 02:13:32 66° SSE
PSLV R/B 3.6 02:12:21 10° N 02:16:42 76° WNW 02:16:42 76° WNW
IRS-P3 4.3 02:13:10 10° NNE 02:18:31 65° ESE 02:19:31 53° SSE
Cosmos 2297 Rocket 4.4 02:14:08 10° N 02:18:34 23° NE 02:22:59 10° ESE
CZ-2C R/B 4.5 02:19:48 23° W 02:19:48 23° W 02:23:03 10° NW
Cosmos 1666 3.1 02:20:16 60° NNE 02:20:16 60° NNE 02:23:30 10° NNE
USA 161 4.3 02:26:10 14° E 02:26:46 15° ENE 02:28:32 10° NNE
ATLAS CENTAUR R/B 4.3 02:27:49 10° ESE 02:29:15 11° ESE 02:30:42 10° E
Cosmos 1656 Rocket 3.7 02:33:31 52° WSW 02:34:48 69° WNW 02:40:27 10° NNE
Cosmos 1943 Rocket 3.2 02:34:07 29° W 02:35:45 34° WNW 02:40:50 10° N
Cosmos 1606 Rocket 4.3 02:36:15 38° WNW 02:36:15 38° WNW 02:40:07 10° N
Cosmos 2228 2.8 02:36:03 83° SSW 02:36:13 89° W 02:40:33 10° N
GEOS 3 Rocket 4.5 02:31:45 10° ESE 02:36:46 49° NE 02:41:44 10° NNW
Landsat 4 4.0 02:37:27 60° NW 02:37:27 60° NW 02:40:45 10° NNW
NPP 3.6 02:33:25 10° NNE 02:38:50 83° ESE 02:40:15 51° S
Cosmos 44 Rocket 3.6 02:42:42 10° NW 02:47:24 49° WSW 02:47:24 49° WSW
Cosmos 2058 Rocket 3.5 02:47:43 45° W 02:47:52 45° WNW 02:52:08 10° N
AQUA 3.7 02:44:48 10° NNE 02:49:36 88° ESE 02:50:39 55° S
SL-8 R/B 3.5 02:47:12 10° WNW 02:52:00 75° SSW 02:56:46 10° SE
Resurs 1-4 Rocket 3.6 02:48:14 10° NE 02:52:51 30° E 02:56:07 16° SSE
Cosmos 1464 Rocket 4.3 02:50:25 29° SSE 02:53:39 63° E 02:59:53 10° NNE
Cosmos 1812 Rocket 3.9 02:52:48 44° SSE 02:53:59 62° E 02:58:26 10° NNE
Cosmos 2346 Rocket 4.5 02:51:16 10° NNW 02:57:29 69° W 03:00:02 37° SSW
Cosmos 2233 Rocket 4.2 02:59:20 38° SW 03:01:21 53° WNW 03:07:21 10° N
Cosmos 1570 Rocket 4.3 03:00:19 42° WSW 03:01:52 57° WNW 03:07:09 10° NNE
Meteor 1-15 Rocket 4.4 03:00:27 41° SW 03:02:19 59° WNW 03:08:07 10° N
Cosmos 1707 3.7 03:01:10 10° N 03:04:57 45° ENE 03:07:03 23° SE
GENESIS II 4.2 03:07:26 61° SSW 03:08:07 87° ESE 03:12:17 10° NE
ERS-2 2.0 03:04:23 10° NNE 03:08:08 85° WNW 03:08:37 66° SSW
ADEOS 3.5 03:04:11 10° NNE 03:09:26 88° ESE 03:11:35 37° SSW
Cosmos 1898 Rocket 4.0 03:04:38 10° NNW 03:09:57 60° ENE 03:15:12 10° SSE
SeaSat 1 4.5 03:13:20 13° W 03:13:20 13° W 03:14:24 10° WNW
Meteor 2-5 Rocket 3.9 03:06:23 10° N 03:12:15 79° E 03:16:49 18° SSE
SL-08 R/B 3.7 03:12:33 39° WSW 03:13:07 41° W 03:17:34 10° NNW
Uosat 12 SS-18 rocket 4.3 03:09:34 10° NW 03:14:14 77° WSW 03:19:47 10° SSE
CBERS 1 LM4 rocket 4.3 03:09:40 10° N 03:14:25 74° WNW 03:16:07 40° SSW
Okean 3 Rocket 4.0 03:12:33 10° N 03:16:56 59° E 03:19:56 19° SSE
NOSS 2-1 (E) 4.3 03:17:49 30° SSE 03:19:06 39° ESE 03:23:12 10° NE
BREEZE-M DEB (TANK) 2.9 03:12:24 10° WNW 03:20:42 52° SW 03:22:11 30° SSE
Cosmos 972 Rocket 4.0 03:18:35 10° NNW 03:23:23 56° WSW 03:25:39 31° SSW
Cosmos 1513 Rocket 4.4 03:22:30 26° S 03:26:11 90° WNW 03:32:17 10° N
Cosmos 2082 3.6 03:21:43 10° NNW 03:27:24 87° WSW 03:33:01 10° SSE
ISS -0.8 03:24:50 10° NW 03:27:31 23° NNE 03:30:12 10° ENE
NOSS 3-4 (A) 4.4 03:20:47 10° NNW 03:27:38 59° NE 03:34:53 10° SE
NOSS 3-4 (C) 4.4 03:20:52 10° NNW 03:27:46 59° NE 03:35:03 10° SE
Cosmos 1937 Rocket 4.0 03:22:42 10° NNW 03:27:50 61° ENE 03:32:58 10° SSE
ARIANE 5 R/B 2.5 03:27:08 10° NNE 03:32:17 89° ESE 03:35:16 26° SSW
Cosmos 1697 Rocket 3.8 03:28:41 14° SSE 03:33:00 37° ESE 03:38:11 10° NE
CZ-2D R/B 2.2 03:34:04 10° NNE 03:39:35 79° ESE 03:43:29 20° S
Cosmos 1980 Rocket 4.0 03:35:10 10° SSE 03:39:42 26° ESE 03:44:17 10° NE
Cosmos 44 3.8 03:35:54 10° NW 03:40:38 37° WSW 03:42:37 26° SSW
Spot 4 Rocket 4.3 03:35:41 10° N 03:40:43 55° WNW 03:43:25 27° SW
Cosmos 1891 Rocket 4.4 03:37:08 24° SSW 03:40:56 73° W 03:47:03 10° N
Cosmos 2227 Rocket 2.2 03:35:19 10° NNW 03:40:57 65° WSW 03:46:32 10° S
Milstar 3 Cent rocket 3.7 03:39:47 18° S 03:41:36 21° SSE 03:47:20 10° ESE
SL-16 R/B 2.5 03:35:57 10° S 03:42:05 75° WSW 03:48:16 10° NNW
MTI 4.2 03:46:46 12° SSE 03:49:47 64° ENE 03:53:03 10° N
CZ-2D R/B 4.2 03:46:38 10° NNE 03:50:51 53° E 03:54:43 12° S
IRS-1D 3.5 03:47:15 10° N 03:52:10 65° WNW 03:55:21 22° SSW
Cosmos 2034 Rocket 4.1 03:47:56 21° SSW 03:52:11 62° W 03:58:21 10° N
Lacrosse 5 4.4 03:49:23 10° NW 03:52:40 17° N 03:55:57 10° NNE
Cosmos 2298 Rocket 4.2 03:47:37 10° NNW 03:52:45 51° WSW 03:57:30 12° S
Cosmos 2369 3.9 03:51:18 23° SW 03:54:47 61° WNW 04:00:26 10° NNE
Cosmos 2278 4.0 03:51:23 23° SW 03:54:47 54° WNW 04:00:22 10° NNE
ATLAS 2AS CENTAUR R/B 4.3 03:50:10 10° WNW 03:54:50 17° WSW 03:55:56 17° WSW
Okean O Rocket 2.7 03:51:52 10° NNE 03:56:02 42° E 04:00:12 10° S
Cosmos 1766 3.3 03:53:53 19° S 03:56:41 83° E 04:00:39 10° N
USA 161 3.1 03:57:20 21° W 03:57:20 21° W 03:59:17 10° NW
Cosmos 405 Rocket 3.7 03:57:22 10° NNW 04:01:01 32° W 04:02:38 23° SW
Cosmos 2297 Rocket 2.2 03:57:28 10° NNW 04:03:03 60° WSW 04:08:35 10° S
UNK 4.1 04:01:08 16° SSW 04:04:37 46° W 04:09:08 10° NNW
Meteor 1-22 Rocket 4.4 04:01:01 15° SSW 04:06:08 76° W 04:12:17 10° N
Cosmos 1814 Rocket 4.1 04:02:38 19° SW 04:06:23 65° WNW 04:11:44 10° NNE
UNKNOWN OBJECT B 2.7 04:02:31 10° N 04:06:29 74° WNW 04:09:18 18° SSW
ATLAS CENTAUR R/B 1.9 04:03:58 19° SSW 04:07:37 84° ESE 04:12:39 10° NE
Cosmos 1953 3.1 04:04:34 10° S 04:08:29 53° E 04:12:27 10° NNE
Nadezhda 4 Rocket 4.0 04:04:01 10° NNW 04:10:06 63° W 04:16:13 10° S
Meteor 1-24 Rocket 3.9 04:05:14 10° NNW 04:10:48 59° W 04:16:30 10° S
GEOS 3 Rocket 4.3 04:10:21 10° S 04:14:54 30° WSW 04:19:28 10° WNW
Cosmos 1076 Rocket 3.5 04:13:27 10° NNW 04:17:45 62° W 04:22:00 10° S
EO 1 Del DPAF 4.1 04:17:32 16° SSW 04:20:04 31° W 04:23:35 10° NNW
CZ-2C R/B 3.7 04:22:21 10° S 04:27:05 78° WSW 04:31:46 10° NNW
Cosmos 1766 Rocket 3.8 04:26:56 10° NNW 04:31:12 51° W 04:35:29 10° S
Cosmos 1408 Rocket 3.9 04:27:20 10° NNW 04:31:31 46° W 04:35:44 10° SSW
Resurs 1-4 Rocket 2.9 04:27:56 10° N 04:32:42 35° WNW 04:37:12 11° SW
Okean-O 4.2 04:29:30 10° NNE 04:33:36 35° E 04:37:40 10° SSE
Cosmos 1805 3.2 04:29:47 10° S 04:33:42 86° W 04:37:38 10° N
Cosmos 1378 3.9 04:31:20 10° NNW 04:34:48 34° W 04:38:16 10° SSW
CZ-4B R/B 3.3 04:31:17 10° NNE 04:36:54 85° ESE 04:42:22 10° SSW
Meteor 1-21 Rocket 4.4 04:31:17 10° N 04:37:14 89° WSW 04:43:09 10° S
Cosmos 990 Rocket 4.4 04:33:24 10° NNW 04:38:22 43° WSW 04:43:19 10° S
Cosmos-2242 3.1 04:36:26 10° SSW 04:40:43 62° W 04:45:00 10° N
Cosmos 1441 Rocket 3.9 04:37:46 10° NNW 04:41:27 38° W 04:45:09 10° SSW
Cosmos 2026 Rocket 4.1 04:35:19 10° N 04:41:43 86° W 04:48:00 10° S
Cosmos 1634 Rocket 4.1 04:36:08 10° SSW 04:42:18 67° W 04:48:36 10° N
MOZ.5/SAFIR/RUBIN 5/SL-8 3.8 04:38:01 10° S 04:42:42 63° W 04:47:23 10° NNW
Cosmos 2227 4.5 04:38:34 10° NNW 04:44:23 79° ENE 04:50:08 10° SSE
Abrixas 3.9 04:44:34 10° NW 04:47:29 40° NNE 04:50:25 10° E
CZ-4B R/B 2.8 04:46:32 10° N 04:50:36 74° WNW 04:54:25 10° SSW
PSLV R/B 4.3 04:48:30 10° NNE 04:52:39 54° E 04:56:48 10° S
Cosmos 1842 Rocket 3.7 04:48:18 10° S 04:52:47 87° E 04:57:18 10° N
Cosmos 1733 4.2 04:50:55 10° SSE 04:54:34 48° E 04:58:15 10° NNE
NOSS 7 (H) 4.4 04:52:09 10° SW 04:55:20 69° NW 04:58:44 10° NNE
Cosmos 1125 Rocket 3.5 04:52:56 10° NNW 04:58:08 71° WSW 05:03:17 10° S
Cosmos 332 Rocket 4.2 04:55:21 10° S 05:00:06 68° ESE 05:04:55 10° NNE
